Location: Bondula
(6.3703°N, 10.6756°W)
Time: 03:28:32
(UTC+00:00)

Cosmos 1726 Rocket - Pass Details

Date: 22 October 2019
Orbit: 602 x 630 km, 82.5° (Epoch: 14 November)

Event Time Altitude Azimuth Distance (km) Brightness Sun altitude
Rises 05:40:24 0° 354° (N) 2,841 6.8 -12.7°
Reaches altitude 10° 05:42:36 10° 353° (N) 1,942 5.9 -12.1°
Maximum altitude 05:46:53 79° 267° (W) 620 3.4 -11.1°
Drops below altitude 10° 05:51:13 10° 180° (S) 1,960 6.3 -10.0°
Sets 05:53:27 0° 179° (S) 2,869 7.1 -9.5°
